Bow Clipper — LAUU4 — position and weather

sailwx.info

Track history (hours):
 
Tides and Currents Weather Stations Pressure Air Temp Water Temp Dewpoint Dewpoint Depression Visibility Wind Speed Wind Dir Waves Ship Positions

Bow Clipper

Last reported at 2015-Jul-06 21:33 UTC. Time now 2015-Jul-06 22:12 UTC.
Position N 36°07' W 008°28'.

Length 188 m; draft 6.1 m.

Type: Ship (hazmat cat B). MMSI: 258946991.

Date/timePositionNaut miles runAvg speedWind from/ knotsBaromVisibWave heightAir tempDewpointWater temp
2015-Jul-06 21:33N 36°07' W 008°28'1413.7
2015-Jul-06 20:33N 36°09' W 008°45'1313.5
2015-Jul-06 19:33N 36°10' W 009°01'1413.6
2015-Jul-06 18:33N 36°15' W 009°17'1413.7
2015-Jul-06 17:33N 36°21' W 009°33'1413.7
2015-Jul-06 16:33N 36°26' W 009°48'1313.4
2015-Jul-06 15:33N 36°31' W 010°04'1313.3
2015-Jul-06 14:33N 36°36' W 010°19'1313.4
2015-Jul-06 13:33N 36°40' W 010°35'1413.6
2015-Jul-06 12:33N 36°46' W 010°50'1313.3
2015-Jul-06 11:33N 36°51' W 011°06'1413.7
2015-Jul-06 10:33N 36°56' W 011°21'1313.4
2015-Jul-06 09:33N 37°01' W 011°37'1313.4
2015-Jul-06 08:33N 37°06' W 011°53'1313.2
2015-Jul-06 07:33N 37°12' W 012°08'1313.4
2015-Jul-06 06:33N 37°17' W 012°23'1913.7
2015-Jul-06 05:11N 37°25' W 012°44'10713.8
2015-Jul-05 21:28N 38°04' W 014°50'65313.6
2015-Jul-03 21:28N 40°03' W 028°37'  
2015-Jun-26 23:32N 34°18' W 076°09'1515.3
2015-Jun-26 22:33N 34°16' W 076°27'1313.5
2015-Jun-26 21:33N 34°26' W 076°38'  
Track history (hours):
 
Tides and Currents Weather Stations Pressure Air Temp Water Temp Dewpoint Dewpoint Depression Visibility Wind Speed Wind Dir Waves Ship Positions

Bow Clipper

Last reported at 2015-Jul-06 21:33 UTC. Time now 2015-Jul-06 22:12 UTC.
Position N 36°07' W 008°28'.

Length 188 m; draft 6.1 m.

Type: Ship (hazmat cat B). MMSI: 258946991.

Date/timePositionNaut miles runAvg speedWind from/ knotsBaromVisibWave heightAir tempDewpointWater temp
2015-Jul-06 21:33N 36°07' W 008°28'1413.7
2015-Jul-06 20:33N 36°09' W 008°45'1313.5
2015-Jul-06 19:33N 36°10' W 009°01'1413.6
2015-Jul-06 18:33N 36°15' W 009°17'1413.7
2015-Jul-06 17:33N 36°21' W 009°33'1413.7
2015-Jul-06 16:33N 36°26' W 009°48'1313.4
2015-Jul-06 15:33N 36°31' W 010°04'1313.3
2015-Jul-06 14:33N 36°36' W 010°19'1313.4
2015-Jul-06 13:33N 36°40' W 010°35'1413.6
2015-Jul-06 12:33N 36°46' W 010°50'1313.3
2015-Jul-06 11:33N 36°51' W 011°06'1413.7
2015-Jul-06 10:33N 36°56' W 011°21'1313.4
2015-Jul-06 09:33N 37°01' W 011°37'1313.4
2015-Jul-06 08:33N 37°06' W 011°53'1313.2
2015-Jul-06 07:33N 37°12' W 012°08'1313.4
2015-Jul-06 06:33N 37°17' W 012°23'1913.7
2015-Jul-06 05:11N 37°25' W 012°44'10713.8
2015-Jul-05 21:28N 38°04' W 014°50'65313.6
2015-Jul-03 21:28N 40°03' W 028°37'  
2015-Jun-26 23:32N 34°18' W 076°09'1515.3
2015-Jun-26 22:33N 34°16' W 076°27'1313.5
2015-Jun-26 21:33N 34°26' W 076°38'  

Dump ship's entire track history